Tracking 31027 objects as of 19-Jul-2025
HD Live streaming from Space Station
objects crossing your sky now

STARLINK-5318

Track STARLINK-5318 now!
10-day predictions
STARLINK-5318 is classified as:


NORAD ID: 55304
Int'l Code: 2023-010AM
Perigee: 576.8 km
Apogee: 581.6 km
Inclination: 70.0 °
Period: 96.1 minutes
Semi major axis: 6950 km
RCS: Unknown
Launch date: January 19, 2023
Source: United States (US)
Launch site: AIR FORCE WESTERN TEST RANGE (AFWTR)
Your satellite tracking list
COSMOS 1275 DEB
Track 1 satellite(s)




NASA's NSSDC Master Catalog

Two Line Element Set (TLE):
1 55304U 23010AM  25199.49389278 -.00000745  00000-0 -54628-4 0  9996
2 55304  69.9983 254.7532 0003419 268.1639  91.9129 14.98326492137889
Source of the keplerian elements: AFSPC